Weather History for Haleyville, AL

Change the Weather History Date:

Sunday, February 17, 2013

  Actual Average (KJFX) Record (KJFX)
Temperature  
Mean Temperature 32 °F -  
Max Temperature 47 °F 57 °F 72 °F (1976)
Min Temperature 18 °F 33 °F 10 °F (1991)
Degree Days  
Heating Degree Days 32    
Moisture  
Dew Point 15 °F    
Average Humidity 50    
Maximum Humidity 88    
Minimum Humidity 26    
Precipitation  
Precipitation 0.00 in - - ()
Sea Level Pressure  
Sea Level Pressure 30.28 in    
Wind  
Wind Speed 2 mph (SSW)    
Max Wind Speed 12 mph    
Max Gust Speed -    
Visibility 10 miles    
Events      
Averages and records for this station are not official NWS values.
T = Trace of Precipitation, MM = Missing Value Source: NWS Daily Summary

Daily Weather History Graph

Daily Weather History Graph

Search for Another Location

Airport:

Trip Planner

Search our weather history database for the weather conditions in past years. The results will help you decide how hot, cold, wet, or windy it might be!

Date:

Astronomy

Feb. 17, 2013 Rise Set
Actual Time 6:33 AM CST 5:36 PM CST
Civil Twilight 6:07 AM CST 6:01 PM CST
Nautical Twilight 5:38 AM CST 6:31 PM CST
Astronomical Twilight 5:09 AM CST 7:00 PM CST
Moon 10:46 AM CST (2/17) 12:11 AM CST (2/17)
Length of Visible Light 11h 54m
Length of Day
11h 03m
Waxing Crescent, 49% of the Moon is Illuminated
Feb 17
Waxing Crescent
Feb 17
First Quarter
Feb 25
Full
Mar 4
Last Quarter
Mar 11
New

Hourly Weather History & Observations

Time (CST) Temp. Windchill Dew Point Humidity Pressure Visibility Wind Dir Wind Speed Gust Speed Precip Events Conditions
12:56 AM 21.0 °F - 15.1 °F 78% 30.29 in 10.0 mi Calm Calm - N/A   Clear
1:56 AM 20.1 °F - 14.0 °F 77% 30.27 in 10.0 mi Calm Calm - N/A   Clear
2:56 AM 18.1 °F - 15.1 °F 88% 30.28 in 10.0 mi Calm Calm - N/A   Clear
3:56 AM 18.1 °F - 15.1 °F 88% 30.28 in 10.0 mi Calm Calm - N/A   Clear
4:56 AM 21.0 °F - 16.2 °F 81% 30.30 in 10.0 mi Calm Calm - N/A   Overcast
5:56 AM 23.0 °F - 17.1 °F 78% 30.30 in 10.0 mi Calm Calm - N/A   Overcast
6:56 AM 24.1 °F - 18.1 °F 78% 30.31 in 10.0 mi Calm Calm - N/A   Overcast
7:56 AM 28.0 °F - 18.1 °F 66% 30.33 in 10.0 mi Calm Calm - N/A   Overcast
8:56 AM 34.0 °F 28.0 °F 14.0 °F 44% 30.34 in 10.0 mi SSW 6.9 mph - N/A   Mostly Cloudy
9:56 AM 37.9 °F - 9.1 °F 30% 30.34 in 10.0 mi Calm Calm - N/A   Mostly Cloudy
10:56 AM 38.8 °F 33.8 °F 11.1 °F 32% 30.35 in 10.0 mi SW 6.9 mph - N/A   Overcast
11:56 AM 41.9 °F - 12.0 °F 30% 30.32 in 10.0 mi Calm Calm - N/A   Mostly Cloudy
12:56 PM 43.9 °F - 11.1 °F 26% 30.30 in 10.0 mi Calm Calm - N/A   Scattered Clouds
1:56 PM 46.9 °F - 13.1 °F 26% 30.27 in 10.0 mi SSW 11.5 mph - N/A   Clear
2:56 PM 46.9 °F - 13.1 °F 26% 30.25 in 10.0 mi Calm Calm - N/A   Clear
3:56 PM 47.8 °F - 15.1 °F 27% 30.24 in 10.0 mi SSW 8.1 mph - N/A   Clear
4:56 PM 46.9 °F - 16.2 °F 29% 30.24 in 10.0 mi SSW 9.2 mph - N/A   Clear
5:56 PM 43.0 °F - 18.1 °F 37% 30.24 in 10.0 mi Calm Calm - N/A   Clear
6:56 PM 41.0 °F - 19.0 °F 41% 30.25 in 10.0 mi Calm Calm - N/A   Clear
7:56 PM 39.9 °F 35.8 °F 18.1 °F 42% 30.25 in 10.0 mi South 5.8 mph - N/A   Clear
8:56 PM 37.9 °F 32.7 °F 18.1 °F 45% 30.26 in 10.0 mi South 6.9 mph - N/A   Clear
9:56 PM 37.9 °F 31.5 °F 18.1 °F 45% 30.26 in 10.0 mi South 9.2 mph - N/A   Clear
10:56 PM 37.9 °F 32.1 °F 18.1 °F 45% 30.26 in 10.0 mi South 8.1 mph - N/A   Clear